CAPE
0 0 0 0 18 424 619 465 287 91 0 0 0 0 0 0 0 0 0 0 0 0 0 0 0 0 0 0 0 0 0 0
0 0 0 0 0 0 165 171 308 192 118 46 13 0 0 0 0 0 0 0 0 0 0 0 0 0 5 0 0 0 0 0
0 0 0 0 0 0 22 103 302 341 310 204 97 55 30 4 4 0 0 0 0 0 0 0 0 1 22 23 12 3 0 0
0 0 0 0 0 0 3 130 236 442 526 355 237 337 266 173 120 102 53 8 0 0 0 0 0 0 30 51 34 29 47 11
0 0 0 0 0 0 0 121 358 606 788 658 587 584 603 520 378 252 186 147 105 43 7 0 0 34 35 218 127 67 66 89
0 0 0 0 0 0 0 64 491 750 997 983 806 806 697 574 635 514 432 286 283 188 118 64 71 124 218 184 262 195 85 68
0 0 0 0 0 0 0 4 209 765 867 1003 992 930 881 757 658 694 548 513 470 454 319 217 141 181 273 234 231 309 250 142
0 0 0 0 0 0 0 0 41 484 814 888 941 982 894 848 784 729 591 505 485 487 403 314 287 269 296 266 238 240 215 185
0 0 0 0 0 0 0 0 10 232 548 601 773 898 890 916 877 865 822 730 654 535 435 361 278 242 222 204 249 296 202 161
0 0 0 0 0 0 0 1 94 76 75 177 414 704 860 945 952 911 947 823 654 514 384 306 174 204 207 178 275 377 257 208
0 0 0 0 0 0 0 12 29 23 1 0 0 0 86 343 526 731 782 649 425 379 272 227 113 119 95 143 204 200 160 60
0 0 0 0 0 0 34 30 0 6 95 150 164 184 216 291 403 446 413 269 198 202 199 148 162 152 93 38 38 40 66 22
0 0 0 0 4 0 4 0 0 1 67 152 193 210 220 244 222 177 102 153 85 106 89 134 139 83 10 35 31 2 11 0
0 0 2 41 90 6 0 0 0 0 0 0 0 0 19 54 40 29 16 56 59 13 17 17 0 0 0 0 0 0 0 0
0 134 140 200 182 120 55 5 0 0 0 0 0 0 1 20 22 8 16 5 0 0 0 0 0 0 0 0 0 0 0 0
0 19 203 184 130 110 72 33 0 0 0 0 0 0 0 0 0 0 0 0 0 0 0 0 0 0 0 0 0 0 0 0
0 0 0 221 207 202 139 58 0 0 0 0 0 1 0 0 0 0 0 0 0 0 0 0 0 0 0 0 0 0 0 0
0 0 0 5 200 218 171 85 31 0 0 0 0 0 0 0 0 0 0 0 0 0 0 0 0 0 0 0 0 0 0 0
0 0 0 0 98 171 84 29 20 11 4 0 0 0 0 0 0 0 0 0 0 0 0 0 0 0 0 0 0 0 0 0
CIN
-0 -0 -0 -0 -386 -417 -409 -540 -638 -762 -0 -0 -0 -0 -0 -0 -0 -0 -0 -0 -0 -0 -0 -0 -0 -0 -0 -0 -0 -0 -0 -0
-0 -0 -0 -0 -0 -0 -534 -555 -580 -717 -723 -770 -829 -0 -0 -0 -0 -0 -0 -0 -0 -0 -0 -0 -0 -0 -337 -0 -0 -0 -0 -0
-0 -0 -0 -0 -0 -0 -619 -539 -587 -628 -648 -644 -702 -772 -788 -827 -193 -0 -0 -0 -0 -0 -0 -0 -0 -20 -276 -273 -227 -47 -0 -0
-0 -0 -0 -0 -0 -0 -275 -512 -515 -553 -581 -615 -622 -528 -526 -565 -611 -591 -578 -279 -0 -0 -0 -0 -0 -0 -259 -235 -235 -182 -125 -142
-0 -0 -0 -0 -0 -0 -0 -507 -485 -509 -520 -507 -485 -426 -405 -405 -462 -496 -492 -445 -348 -312 -262 -0 -0 -255 -240 -192 -194 -170 -136 -95
-0 -0 -0 -0 -0 -0 -0 -587 -517 -517 -493 -446 -437 -380 -337 -363 -344 -350 -337 -371 -297 -234 -209 -209 -171 -139 -148 -176 -150 -141 -154 -122
-0 -0 -0 -0 -0 -0 -0 -174 -568 -501 -472 -436 -379 -326 -329 -313 -306 -278 -264 -246 -216 -168 -155 -137 -147 -120 -102 -147 -133 -100 -110 -116
-0 -0 -0 -0 -0 -0 -0 -0 -425 -534 -453 -409 -365 -326 -330 -302 -279 -246 -233 -209 -177 -136 -125 -102 -93 -112 -100 -114 -130 -127 -119 -108
-0 -0 -0 -0 -0 -0 -0 -0 -304 -533 -431 -394 -391 -349 -337 -317 -271 -229 -175 -147 -126 -128 -118 -88 -111 -107 -104 -119 -106 -96 -119 -115
-0 -0 -0 -0 -0 -0 -0 -151 -514 -568 -531 -501 -424 -370 -335 -299 -264 -219 -157 -140 -134 -117 -133 -121 -128 -113 -98 -97 -90 -77 -84 -79
-0 -0 -0 -0 -0 -0 -0 -350 -539 -576 -355 -0 -0 -0 -545 -410 -336 -255 -192 -176 -206 -155 -155 -152 -173 -132 -129 -90 -82 -83 -78 -118
-0 -0 -0 -0 -0 -0 -668 -670 -0 -348 -581 -542 -510 -484 -463 -412 -343 -286 -251 -267 -251 -206 -178 -147 -120 -89 -93 -103 -103 -122 -109 -128
-0 -0 -0 -0 -298 -0 -741 -0 -0 -40 -667 -563 -513 -484 -449 -415 -379 -368 -393 -293 -324 -233 -187 -110 -114 -117 -161 -120 -113 -29 -167 -0
-0 -0 -135 -655 -624 -275 -0 -0 -0 -0 -0 -0 -0 -0 -525 -597 -569 -531 -502 -379 -322 -341 -250 -204 -0 -0 -0 -0 -0 -0 -0 -0
-0 -526 -494 -465 -492 -533 -560 -524 -0 -0 -0 -0 -0 -0 -42 -606 -562 -547 -481 -236 -58 -0 -0 -0 -0 -0 -0 -0 -0 -0 -0 -0
-0 -188 -244 -382 -468 -522 -612 -677 -0 -0 -0 -0 -0 -0 -0 -1 -0 -0 -0 -0 -0 -0 -0 -0 -0 -0 -0 -0 -0 -0 -0 -0
-0 -0 -0 -254 -342 -450 -521 -629 -6 -0 -0 -0 -0 -0 -0 -0 -0 -0 -0 -0 -0 -0 -0 -0 -0 -0 -0 -0 -0 -0 -0 -0
-0 -0 -0 -72 -349 -423 -490 -627 -784 -0 -0 -0 -0 -0 -0 -0 -0 -0 -0 -0 -0 -0 -0 -0 -0 -0 -0 -0 -0 -0 -0 -0
-0 -0 -0 -32 -445 -521 -642 -733 -722 -672 -621 -0 -0 -0 -0 -0 -0 -0 -0 -0 -0 -0 -0 -0 -0 -0 -0 -0 -0 -0 -0 -0
Wind_Speed
17 18 24 17 19 16 14 14 16 19 18 16 15 15 16 13 13 13 13 13 13 13 11 11 11 12 13 15 16 16 21 21
24 16 15 13 14 15 13 12 13 13 15 17 17 22 19 16 14 12 12 13 14 15 14 14 14 14 15 15 17 17 19 22
20 18 17 12 12 14 13 13 11 14 13 17 12 15 15 14 12 11 11 12 13 14 16 15 16 16 17 17 16 19 20 17
21 21 19 17 14 14 14 14 14 15 13 9 6 5 6 9 13 13 14 13 13 14 15 15 16 17 17 18 19 19 20 19
28 30 30 25 18 19 17 15 14 14 13 11 12 11 9 11 11 10 10 13 15 14 14 15 16 17 18 18 18 19 20 22
32 31 30 32 28 22 20 18 17 15 14 13 12 12 11 12 9 8 10 10 13 15 16 16 16 17 18 18 18 18 20 21
34 36 35 37 28 21 20 18 17 17 15 14 13 13 12 11 11 9 9 9 11 14 15 16 17 17 18 19 19 20 20 21
39 38 37 35 27 18 18 18 17 16 15 13 13 12 12 11 11 10 9 8 8 10 12 14 15 16 17 18 20 20 21 22
43 40 37 31 21 18 17 17 17 15 13 12 12 13 13 12 11 11 10 10 9 9 10 11 13 13 14 17 18 19 20 21
50 41 30 24 18 16 13 14 14 12 12 12 13 13 12 12 12 11 10 11 11 10 9 9 10 12 12 14 16 18 19 21
41 32 24 20 19 17 14 13 12 12 12 13 13 12 12 12 11 11 12 12 12 11 12 10 10 10 11 12 14 17 19 20
36 28 22 21 19 17 15 14 13 12 11 11 11 11 12 13 13 13 14 14 14 14 13 12 12 12 11 13 15 17 19 20
30 26 21 18 18 17 15 14 12 12 11 9 10 11 13 14 15 16 16 16 16 16 16 15 14 14 14 14 16 17 17 18
28 23 20 18 17 17 16 13 14 13 11 11 12 14 16 16 17 16 16 16 17 16 17 17 17 16 15 14 14 14 14 15
26 23 21 20 19 18 16 15 14 12 12 13 14 14 16 17 17 16 17 17 18 17 18 17 16 14 12 11 11 12 14 15
29 25 25 24 24 22 20 17 16 14 14 14 15 14 14 16 16 17 18 18 18 17 16 16 14 12 10 10 10 12 14 14
38 33 31 30 28 26 22 21 20 18 18 16 15 13 15 16 17 17 17 18 17 16 14 13 12 10 8 8 10 11 12 13
41 38 31 31 30 29 28 25 24 22 20 19 16 16 16 15 15 16 17 17 15 15 14 11 10 10 9 9 9 11 12 14
51 44 39 34 30 32 32 29 26 25 24 20 19 18 17 15 15 16 16 15 15 14 13 11 11 10 9 9 10 11 13 16
Wind_Direction
244 228 215 225 213 216 207 200 196 191 186 185 188 191 194 197 202 206 210 215 215 219 235 247 254 264 266 270 271 274 280 281
276 251 237 232 228 220 211 204 194 186 187 188 190 196 196 200 205 212 221 223 225 226 238 245 246 252 265 266 274 274 275 280
275 273 277 257 236 220 216 211 211 195 189 191 194 193 199 204 209 219 229 230 233 233 231 243 241 253 263 267 265 278 278 274
274 274 274 275 260 242 227 224 219 211 208 209 250 251 274 212 213 217 218 225 230 230 235 238 246 244 251 259 264 265 274 274
275 279 279 277 261 261 252 241 235 231 227 229 219 223 243 231 227 228 226 221 220 226 233 238 241 245 245 252 259 263 269 270
276 279 284 282 278 255 252 252 250 246 231 235 237 240 254 290 277 253 236 233 222 224 228 236 238 240 242 248 253 255 261 269
273 276 281 283 287 259 252 245 246 244 237 241 233 238 266 277 280 265 259 248 239 228 225 226 231 240 242 247 251 254 258 263
275 279 283 286 281 260 250 245 246 241 237 237 234 254 270 270 276 275 275 270 268 247 234 230 231 235 242 251 253 258 260 267
275 281 284 284 271 259 254 248 246 235 234 232 254 268 275 282 282 279 271 275 274 275 254 247 240 240 246 251 257 261 268 273
272 277 277 274 256 253 250 241 237 237 240 253 268 272 276 283 285 280 279 284 289 289 278 266 253 246 247 257 256 261 270 278
275 273 268 257 249 251 248 241 240 256 266 272 279 281 291 295 295 288 290 292 295 297 295 285 280 265 253 259 265 269 279 284
276 271 267 253 242 238 240 242 250 262 274 279 286 293 303 306 304 302 300 302 303 301 303 296 288 281 270 269 273 274 279 282
280 272 262 241 229 232 235 240 247 264 274 281 292 299 307 311 309 309 308 305 305 303 302 300 295 290 281 271 274 275 280 283
289 274 257 235 228 233 237 241 256 269 275 288 294 301 305 309 310 310 310 309 307 304 303 300 297 292 287 281 277 277 280 281
287 273 255 242 240 238 241 249 257 262 274 286 294 302 306 308 309 309 308 308 307 305 306 305 302 297 290 281 280 281 290 292
278 270 260 254 252 249 253 253 251 259 269 279 289 299 309 311 309 310 311 310 310 310 310 309 307 303 294 287 289 291 294 293
273 277 266 256 250 250 249 250 251 259 269 273 284 288 304 307 304 309 311 312 314 314 316 313 309 311 306 307 303 303 303 298
270 274 276 266 255 249 248 252 256 258 265 271 275 285 293 300 305 307 309 310 314 314 316 313 310 310 314 316 312 309 306 305
267 270 271 272 270 260 259 260 260 262 265 267 273 280 285 292 298 302 307 311 311 312 314 311 306 309 316 316 315 312 310 309